Regional Weather Roundup
Issued by NWS

Home | Current Version | Previous Version | Graphics & Text | Print | Product List | Glossary On
Versions: 1 2 3 4 5 6 7 8 9 10 11 12 13 14 15 16 17 18 19 20 21 22 23 24 25 26 27 28 29 30 31 32 33 34 35 36 37 38 39 40 41 42 43 44 45 46 47 48 49 50
000
ASUS45 KTFX 271710
RWRMT
MONTANA REGIONAL WEATHER ROUNDUP
NATIONAL WEATHER SERVICE GREAT FALLS MT
1100 AM MDT WED JUL 27 2016

NOTE: "FAIR" INDICATES FEW OR NO CLOUDS BELOW 12000 FEET WITH NO
SIGNIFICANT WEATHER AND/OR OBSTRUCTIONS TO VISIBILITY.

MTZ001>007-043-271800-
WEST OF THE DIVIDE

CITY           SKY/WX    TMP DP  RH WIND       PRES   REMARKS
KALISPELL      SUNNY     75  52  44 NE12G23   30.13F
MISSOULA       SUNNY     75  53  46 CALM      30.14F
BUTTE          MOSUNNY   72  41  32 CALM      30.25F
MULLAN PASS    MOSUNNY   68  49  50 VRB3      30.28R
ANACONDA         N/A     72  50  46 N6        30.21S
DEER LODGE       N/A     70  48  46 CALM      30.24S
EUREKA           N/A     72  54  53 W5        30.16F
HAMILTON         N/A     73  48  40 CALM      30.15F
LIBBY            N/A     73  52  46 N5        30.13F
PLAINS           N/A     79  52  38 CALM      30.11F
$$

MTZ008-052>055-271800-
SOUTHWEST MONTANA

CITY           SKY/WX    TMP DP  RH WIND       PRES   REMARKS
BOZEMAN        SUNNY     73  46  38 CALM      30.20F
DILLON         SUNNY     70  48  45 NW3       30.22F
W YELLOWSTONE  SUNNY     68  36  30 CALM      30.33S
ENNIS          SUNNY     73  39  29 W6        30.27F
THREE FORKS      N/A     74  26  16 CALM      30.17F
TWIN BRIDGES     N/A     68  46  45 S5        30.18F
$$

MTZ009-010-012-014-046-048-049-054-271800-
EAST SLOPES AND CENTRAL MONTANA

CITY           SKY/WX    TMP DP  RH WIND       PRES   REMARKS
CUT BANK       MOSUNNY   70  54  56 SE7       30.20S
GREAT FALLS    SUNNY     72  53  51 N5        30.19F
MALMSTROM AFB  SUNNY     71  53  53 NE2       30.19F
HELENA         MOSUNNY   74  53  48 CALM      30.18S
CHOTEAU          N/A     72  52  49 CALM      30.23S
CONRAD           N/A     71  59  66 E2        30.21R
$$

MTZ011-013-016-021-045-047-050-051-271800-
NORTH CENTRAL MONTANA

CITY           SKY/WX    TMP DP  RH WIND       PRES   REMARKS
HAVRE          CLOUDY    69  60  73 NW3       30.16R
LEWISTOWN      SUNNY     69  57  65 CALM      30.20S
N BAR RANCH      N/A     73  52  46 VRB6      30.21S
CHINOOK          N/A     72  61  68 CALM      30.14S
$$

MTZ017>020-022>027-061-062-271800-
NORTHEAST MONTANA

CITY           SKY/WX    TMP DP  RH WIND       PRES   REMARKS
GLASGOW        PTSUNNY   68  61  78 VRB7      30.14R
JORDAN           N/A     70  61  73 NE5       30.13F
SIDNEY         LGT RAIN  70  60  70 E3        30.14R
WOLF POINT     CLOUDY    68  62  81 NE5       30.15R
PLENTYWOOD       N/A     66  57  72 CALM      30.16R
SCOBEY           N/A     68  54  60 NE2       30.14R
$$

MTZ028>42-056>058-271800-
SOUTHCENTRAL AND SOUTHEAST MONTANA

CITY           SKY/WX    TMP DP  RH WIND       PRES   REMARKS
BAKER          TSTM      64  62  93 CALM      30.17R
BILLINGS       MOSUNNY   75  57  53 CALM      30.16R
LIVINGSTON     SUNNY     77  44  30 VRB5      30.18F
MILES CITY     CLOUDY    71  61  70 NE7       30.12R
EKALAKA          N/A     58  54  86 CALM      30.16R
FORSYTH          N/A     73  61  64 W5        30.11S
LAUREL           N/A     76  57  51 E3        30.14S
ROUNDUP          N/A     75  57  53 N2        30.06S
$$

REGIONAL REPORTS...DAKOTAS

CITY           SKY/WX    TMP DP  RH WIND       PRES   REMARKS
WILLISTON      CLOUDY    72  58  61 CALM      30.13S
MINOT          MOSUNNY   76  59  55 NE6       30.14R
DICKINSON      PTSUNNY   67  61  81 SE7       30.13S
BEACH          PTSUNNY   68  64  88 E3        30.19R
CROSBY           N/A     70  64  83 E6        30.17R
WATFORD CITY     N/A    N/A N/A N/A MISG        N/A
BISMARCK       CLOUDY    74  64  71 E7        30.12R
GRAND FORKS    MOSUNNY   73  59  61 N15       30.05F
FARGO          SUNNY     76  58  53 N14       30.03S
BUFFALO SD       N/A     71  62  73 VRB7      30.10R
RAPID CITY     CLOUDY    76  62  62 E9        30.10R
$$

REGIONAL REPORTS...WYOMING/IDAHO/WASHINGTON

CITY           SKY/WX    TMP DP  RH WIND       PRES   REMARKS
GILLETTE       SUNNY     80  53  39 VRB3      30.16S
SHERIDAN       SUNNY     82  51  34 VRB3      30.15S
BUFFALO WY     SUNNY     79  52  38 CALM      30.20R
CODY           SUNNY     75  46  35 N7        30.21S
YELLOWSTONE LA   N/A     61  46  57 VRB5      30.42S
IDAHO FALLS    SUNNY     77  44  30 CALM      30.19F
SALMON         SUNNY     70  45  40 CALM      30.15F
BOISE          SUNNY     86  43  22 SW8       30.06S
SPOKANE        MOSUNNY   76  53  44 NE6       30.09S
$$

REGIONAL REPORTS...ALBERTA

CITY           SKY/WX    TMP DP  RH WIND       PRES   REMARKS
EDMONTON       SUNNY     79  57  47 CALM      30.13R
CALGARY        PTSUNNY   70  59  68 VRB2      30.21S
LETHBRIDGE     PTSUNNY   68  59  73 VRB2      30.18S
MEDICINE HAT   PTSUNNY   77  61  57 VRB2      30.16S
WATERTON GATE    N/A     72  52  49 N3          N/A
MILK RIVER       N/A     68  55  64 NE1         N/A
$$

REGIONAL REPORTS...SASKATCHEWAN

CITY           SKY/WX    TMP DP  RH WIND       PRES   REMARKS
SWIFT CURRENT  SUNNY     70  57  64 E10       30.17S
REGINA         PTSUNNY   72  57  60 NW2       30.16F
SASKATOON      MOSUNNY   73  52  46 SW6       30.19S
VAL MARIE        N/A     66  59  77 NE5         N/A
ROCKGLEN         N/A     64  59  82 E3          N/A
ASSINIBOIA       N/A     75  61  60 N2          N/A
$$



USA.gov is the U.S. government's official web portal to all federal, state and local government web resources and services.